Home   Weather   Guildford   Past weeks

Flag for United Kingdom Past Weather in Guildford, England, United Kingdom — Yesterday and Last 2 Weeks

Now
39 °F

Fog.


Feels Like: 35 °F
Forecast: 36 / 50 °F
Wind: 6 mph from Southeast

Location: Odiham

Current Time: Dec 6, 2016 at 6:01:07 am

Latest Report: Dec 6, 2016 at 4:50 am


Visibility: 0 mi

Pressure: 30.27 "Hg

Humidity: 100%

Dew Point: 39 °F

Location of GuildfordLocation

Past Weather in Guildford — Graph

°F

Guildford Temperature Yesterday

Maximum temperature yesterday: 45 °F (at 1:50 pm)
Minimum temperature yesterday: 25 °F (at 6:50 am)
Average temperature yesterday: 34 °F

High & Low Weather Summary for the Past Weeks

 TemperatureHumidityPressure
High54 °F (Nov 21, 11:50 am)100% (Nov 21, 4:50 am)30.57 "Hg (Nov 21, 4:50 am)
Low21 °F (Nov 30, 4:50 am)37% (Nov 28, 1:50 pm)29.03 "Hg (Nov 21, 12:50 pm)
Average40 °F83%30.15 "Hg
* Reported Nov 21 4:50 am — Dec 6 4:50 am, Guildford, Weather by CustomWeather, © 2016

Note: Actual official high and low records may vary slightly from our data, if they occured in-between our weather recording intervals... More about our weather records

Advertising

Guildford Weather History for the Previous 24 Hours

Scroll right to see more
 ConditionsComfort  
Time TempWeatherWind HumidityBarometerVisibility
4:50 am
Tue, Dec 6
39 °FFog.6 mph100%30.27 "Hg0 mi
3:50 am39 °FFog.6 mph100%30.27 "Hg1 mi
2:50 am39 °FFog.5 mph100%30.27 "Hg0 mi
1:50 am37 °FFog.5 mph93%30.27 "Hg0 mi
12:50 am37 °FFog.1 mph93%30.27 "Hg1 mi
11:50 pm
Mon, Dec 5
34 °FFog.2 mph100%30.27 "Hg1 mi
10:50 pm36 °FFog.6 mph100%30.27 "Hg1 mi
9:50 pm36 °FFog.5 mph93%30.24 "Hg1 mi
8:50 pm36 °FFog.3 mph93%30.27 "Hg1 mi
7:50 pm34 °FPassing clouds.3 mph93%30.24 "Hg2 mi
6:50 pm36 °FPassing clouds.1 mph93%30.24 "Hg2 mi
5:50 pm39 °FPassing clouds.2 mph87%30.24 "Hg3 mi
4:50 pm39 °FPassing clouds.8 mph87%30.21 "Hg4 mi
3:50 pm39 °FPassing clouds.7 mph87%30.21 "Hg4 mi
2:50 pm45 °FPartly sunny.2 mph81%30.21 "Hg6 mi
1:50 pm45 °FPartly sunny.6 mph81%30.21 "Hg5 mi
12:50 pm43 °FPartly sunny.2 mph81%30.21 "Hg4 mi
11:50 am41 °FPartly sunny.5 mph81%30.21 "Hg4 mi
10:50 am36 °FScattered clouds.3 mph87%30.21 "Hg3 mi
9:50 am34 °FScattered clouds.5 mph93%30.21 "Hg3 mi
8:50 am30 °FIce fog.5 mph100%30.21 "Hg3 mi
7:50 am30 °FIce fog.5 mph93%30.21 "Hg3 mi
6:50 am25 °FIce fog.2 mph93%30.21 "Hg1 mi
Weather by CustomWeather, © 2016

See weather overviewHow to use our weather pages